Regional Weather Roundup
Issued by NWS

Home | Current Version | Previous Version | Text Only | Print | Product List | Glossary Off
Versions: 1 2 3 4 5 6 7 8 9 10 11 12 13 14 15 16 17 18 19 20 21 22 23 24 25 26 27 28 29 30 31 32 33 34 35 36 37 38 39 40 41 42 43 44 45 46 47 48 49 50

000
ASUS43 KMKX 231621
RWRWI

WISCONSIN REGIONAL WEATHER ROUNDUP
NATIONAL WEATHER SERVICE MILWAUKEE/SULLIVAN WI
1100 AM CDT TUE MAY 23 2017

NOTE: "FAIR" INDICATES FEW OR NO CLOUDS BELOW 12,000 FEET WITH NO
SIGNIFICANT WEATHER AND/OR OBSTRUCTIONS TO VISIBILITY.

WIZ001-002-006>008-014>016-023>028-231700-
NORTHWEST WISCONSIN

CITY           SKY/WX    TMP DP  RH WIND       PRES   REMARKS
SUPERIOR ARPT  NOT AVBL
ASHLAND        CLOUDY    50  45  83 N9        29.89R
HAYWARD        CLOUDY    53  47  79 NE8       29.85S
SIREN          CLOUDY    54  46  72 NE7       29.85S
CUMBERLAND     CLOUDY    52  43  71 N9        29.84S
RICE LAKE      CLOUDY    52  47  84 N9        29.85S
CHETEK         CLOUDY    53  49  86 NE5       29.84R
LADYSMITH      CLOUDY    54  46  74 E8        29.85S
EAU CLAIRE     CLOUDY    51  48  89 NE7       29.81S
MENOMONIE      CLOUDY    53  49  87 N6        29.82S
NEW RICHMOND   CLOUDY    54  46  74 NE8       29.84R
OSCEOLA        CLOUDY    55  47  74 NW6       29.86S
$$

WIZ003>005-009-010-017-018-231700-
NORTH CENTRAL WISCONSIN

CITY           SKY/WX    TMP DP  RH WIND       PRES   REMARKS
MANITOWISH WTR LGT RAIN  48  48 100 CALM      29.86S
ARBOR VITAE    LGT RAIN  49  47  93 E3        29.85S
WOODRUFF       LGT RAIN  49  47  93 E3        29.85S
RHINELANDER    CLOUDY    50  47  89 VRB3      29.85F
EAGLE RIVER    CLOUDY    49  47  95 NE6       29.85S
LAND O LAKES   CLOUDY    48  46  90 E5        29.88S
PHILLIPS       CLOUDY    50  45  81 E6        29.84S
TOMAHAWK       CLOUDY    48  47  95 CALM      29.84F
MEDFORD        CLOUDY    49  46  92 NE9       29.81S
MERRILL        CLOUDY    51  48  87 E6        29.83F
$$

WIZ029-030-035-036-043>047-231700-
CENTRAL WISCONSIN

CITY           SKY/WX    TMP DP  RH WIND       PRES   REMARKS
WAUSAU         CLOUDY    53  44  71 NE8       29.80S
MOSINEE        CLOUDY    54  46  76 NE15      29.81R
MARSHFIELD     CLOUDY    54  46  74 NE14      29.78S
STEVENS POINT  CLOUDY    51  46  82 NE13      29.80S
WAUPACA        CLOUDY    57  49  73 NE7       29.79R
WAUTOMA        CLOUDY    58  54  86 NE7       29.77S
WISC RAPIDS    CLOUDY    56  49  77 E7        29.79S
CAMP DOUGLAS   CLOUDY    54  52  94 NE6       29.77S
$$

WIZ011>013-019>022-031-037>040-048>050-231700-
NORTHEAST WISCONSIN

CITY           SKY/WX    TMP DP  RH WIND       PRES   REMARKS
ANTIGO         CLOUDY    51  46  83 E9        29.83S
SHAWANO        DRIZZLE   53  47  78 NE8       29.82S
OCONTO         CLOUDY    52  45  76 NE7       29.82S
STURGEON BAY   CLOUDY    52  46  80 NE7       29.83S
GREEN BAY      CLOUDY    55  50  83 NE17      29.80S
MANITOWOC      CLOUDY    55  49  80 NE7       29.80S
APPLETON       CLOUDY    55  46  71 NE9       29.78R
CLINTONVILLE   CLOUDY    52  46  82 NE6       29.81S
OSHKOSH        CLOUDY    59  54  83 NE7       29.77S
$$

WIZ032>034-041-042-053>061-231700-
SOUTHWEST WISCONSIN

CITY           SKY/WX    TMP DP  RH WIND       PRES   REMARKS
LA CROSSE      CLOUDY    59  53  80 N7        29.76S
SPARTA         CLOUDY    53  50  90 N6        29.78R
VIROQUA        CLOUDY    55  52  88 MISG      29.76S
BOSCOBEL       CLOUDY    58  53  84 SE3       29.76F
PRAIRIE DU CHI CLOUDY    57  50  76 SW6       29.76F
PLATTEVILLE    CLOUDY    56  54  93 W3        29.77F
$$

WIZ056-057-062-063-064-067-068-231700-
SOUTH CENTRAL WISCONSIN

CITY           SKY/WX    TMP DP  RH WIND       PRES   REMARKS
REEDSBURG      CLOUDY    55  55  97 CALM      29.76S
BARABOO/DELLS  CLOUDY    58  51  78 SW6       29.76S
LONE ROCK      CLOUDY    60  53  77 CALM      29.76F
MINERAL POINT  CLOUDY    55  54  94 CALM      29.77S
MADISON        CLOUDY    60  53  77 VRB3      29.76S
MIDDLETON      CLOUDY    61  53  74 SW8       29.76F
WATERTOWN      CLOUDY    59  55  87 S8        29.77S
MONROE         CLOUDY    59  52  77 SW8       29.77S
JANESVILLE     PTSUNNY   61  55  82 SW6       29.77S
$$

WIZ051-052-058>065-066-070>072-231700-
SOUTHEAST WISCONSIN

CITY           SKY/WX    TMP DP  RH WIND       PRES   REMARKS
MILWAUKEE      CLOUDY    63  55  75 S13       29.78S
WAUKESHA       NOT AVBL
MILWAUKEE/TIMM CLOUDY    63  52  67 SW8       29.78F
RACINE         CLOUDY    62  53  72 SW12      29.80S
KENOSHA        CLOUDY    61  53  75 SW8       29.79S
FOND DU LAC    CLOUDY    63  52  67 CALM      29.76F
SHEBOYGAN      CLOUDY    56  52  86 E10       29.78S
WEST BEND      CLOUDY    61  54  77 SW5       29.77F
JUNEAU         CLOUDY    60  54  78 S3        29.77S
$$

LSZ147-162-231700-
LAKE SUPERIOR

STATION/POSITION TIME  TEMP    WIND        PRES    WAVE
                       AIR SEA DIR/SP/G            HT/PER
                 (UTC) (F)     (DEG/KT/KT) (MB)    (FT/S)
W MID LAKE BUOY  1550   40 37   50/  6/  6 1013.0R   0
DEVILS ISLAND    1600   42      60/  9/ 10 1013.1R
PORT WING        1540   43      30/ 12/ 15 1012.2R
SAXON HARBOR     1530   43     300/  2/  2 1011.9R
$$

LMZ867-665-643>646-231700-
LAKE MICHIGAN

STATION/POSITION TIME  TEMP    WIND        PRES    WAVE
                       AIR SEA DIR/SP/G            HT/PER
                 (UTC) (F)     (DEG/KT/KT) (MB)    (FT/S)
CHAMBERS ISLAND  1540   47      20/ 10/ 12 1010.2F
N MID LAKE BUOY  1550   40 39   20/  8/  8 1011.8R   1
NORTHPORT PIER   1540   48      90/  3/  5 1010.5F
KEWAUNEE LAKESHO 1554   46      30/  9/ 14 1009.2R
SHEBOYGAN LAKESH 1600   46     330/  2/  2 1008.8R
PORT WASHINGTON  1530   52      90/  1/  2 1009.5S
ATWATER BUOY     1509   50     140/  6/  6 1008.6S
MILWAUKEE LAKESH 1600   53     120/  8/  9   N/A
S MID LAKE BUOY  1550   49 45  190/  8/ 10 1009.5F   1
KENOSHA   LAKESH 1600   61     220/ 10/ 14 1008.8
$$

TC  - TEMPERATURE IN CELSIUS
VSB - VISIBILITY IN STATUTE MILES
WCI - WIND CHILL INDEX
HX  - HEAT INDEX





USA.gov is the U.S. government's official web portal to all federal, state and local government web resources and services.